Location: Newark
(13.8117°N, 3.6025°W)
Time: 22:47:45
(UTC+00:00)

Vanguard 2 - All Passes

Search period start: 25 August 2019 00:00
Search period end: 04 September 2019 00:00
Orbit: 554 x 2938 km, 32.9° (Epoch: 24 August)

Date Brightness Start Highest point End Pass type
(mag) Time Alt. Az. Time Alt. Az. Time Alt. Az.
25 Aug - 08:05:09 10° S 08:08:02 18° SE 08:10:48 10° E daylight
25 Aug - 10:12:18 10° W 10:16:07 43° NNW 10:20:51 10° NE daylight
25 Aug - 12:22:43 10° NW 12:26:09 17° N 12:30:32 10° NE daylight
25 Aug - 14:31:47 10° NW 14:37:48 23° NNE 14:46:22 10° ENE daylight
25 Aug - 16:39:33 10° NW 16:49:36 51° NNE 17:05:03 10° E daylight
25 Aug - 18:48:28 10° WNW 19:01:47 75° SW 19:19:47 10° SE visible
25 Aug - 21:01:20 10° W 21:14:56 32° SW 21:29:31 10° SSE visible
26 Aug - 08:22:10 10° SSW 08:26:00 35° SE 08:29:41 10° E daylight
26 Aug - 10:30:53 10° W 10:34:20 26° NNW 10:38:34 10° NE daylight
26 Aug - 12:41:38 10° NNW 12:44:51 15° N 12:48:50 10° NE daylight
26 Aug - 14:49:46 10° NW 14:56:24 27° NNE 15:06:09 10° ENE daylight
26 Aug - 16:57:25 10° NW 17:07:51 64° NNE 17:24:08 10° ESE daylight
26 Aug - 19:06:49 10° WNW 19:20:06 60° SW 19:37:39 10° SE visible
26 Aug - 21:21:30 10° W 21:33:30 24° SW 21:46:07 10° S visible
27 Aug - 08:39:48 10° SW 08:43:56 73° SSE 08:47:59 10° ENE daylight
27 Aug - 10:49:49 10° WNW 10:52:42 18° NNW 10:56:09 10° NNE daylight
27 Aug - 13:00:17 10° NNW 13:03:35 15° N 13:07:40 10° NE daylight
27 Aug - 15:07:38 10° NW 15:14:52 32° NNE 15:25:55 10° E daylight
27 Aug - 17:15:20 10° NW 17:26:04 79° NNE 17:42:52 10° ESE daylight
27 Aug - 19:25:26 10° WNW 19:38:28 47° SW 19:55:10 10° SSE visible
27 Aug - 21:42:52 10° WSW 21:52:19 17° SSW 22:02:00 10° S visible
28 Aug - 06:50:36 10° S 06:53:34 15° SSE 06:56:08 10° ESE daylight
28 Aug - 08:57:53 10° WSW 09:01:55 55° NNW 09:05:56 10° NE daylight
28 Aug - 11:09:07 10° NW 11:11:12 13° N 11:13:34 10° NNE daylight
28 Aug - 13:18:30 10° NNW 13:22:15 16° NNE 13:27:01 10° NE daylight
28 Aug - 15:25:25 10° NW 15:33:11 40° NNE 15:45:30 10° E daylight
28 Aug - 17:33:21 10° WNW 17:44:17 84° SSW 18:01:16 10° SE daylight
28 Aug - 19:44:27 10° W 19:56:57 36° SW 20:12:24 10° SSE visible
28 Aug - 22:07:08 10° SW 22:11:26 11° SSW 22:15:46 10° SSW visible
29 Aug - 07:07:20 10° SSW 07:11:43 28° SSE 07:15:16 10° E daylight
29 Aug - 09:16:23 10° W 09:19:58 30° NNW 09:23:38 10° NE daylight
29 Aug - 11:28:59 10° NNW 11:29:49 10° N 11:30:40 10° N daylight
29 Aug - 13:36:24 10° NNW 13:40:49 18° NNE 13:46:44 10° ENE daylight
29 Aug - 15:43:11 10° NW 15:51:21 52° NNE 16:04:47 10° ESE daylight
29 Aug - 17:51:31 10° WNW 18:02:32 67° SSW 18:19:19 10° SE daylight
29 Aug - 20:04:02 10° W 20:15:34 27° SSW 20:29:15 10° SSE visible
30 Aug - 07:24:50 10° SW 07:29:48 53° SSE 07:33:42 10° ENE daylight
30 Aug - 09:35:18 10° WNW 09:38:08 18° NNW 09:41:05 10° NNE daylight
30 Aug - 13:54:09 10° NNW 13:59:16 23° NNE 14:06:32 10° ENE daylight
30 Aug - 16:00:59 10° NW 16:09:28 67° NNE 16:23:45 10° ESE daylight
30 Aug - 18:09:54 10° WNW 18:20:53 52° SSW 18:37:03 10° SE daylight
30 Aug - 20:24:29 10° WSW 20:34:24 20° SSW 20:45:37 10° S visible
31 Aug - 05:34:54 10° S 05:38:51 16° SSE 05:42:00 10° ESE visible
31 Aug - 07:42:47 10° WSW 07:47:47 79° NNW 07:51:45 10° NE daylight
31 Aug - 09:54:50 10° NW 09:56:27 12° NNW 09:58:08 10° N daylight
31 Aug - 14:11:48 10° NNW 14:17:32 29° NNE 14:26:13 10° E daylight
31 Aug - 16:18:52 10° WNW 16:27:35 86° NNE 16:42:21 10° ESE daylight
31 Aug - 18:28:37 10° W 18:39:22 39° SSW 18:54:28 10° SSE visible
31 Aug - 20:46:35 10° SW 20:53:29 14° SSW 21:00:55 10° S visible
01 Sep - 05:51:35 10° SSW 05:57:12 27° SSE 06:01:15 10° E daylight
01 Sep - 08:01:09 10° WSW 08:05:44 42° NNW 08:09:31 10° NE daylight
01 Sep - 12:24:02 10° N 12:25:42 11° NNE 12:27:32 10° NE daylight
01 Sep - 14:29:26 10° NW 14:35:41 39° NNE 14:45:40 10° E daylight
01 Sep - 16:36:54 10° WNW 16:45:45 74° SSW 17:00:36 10° SE daylight
01 Sep - 18:47:49 10° W 18:57:59 29° SSW 19:11:30 10° SSE visible
02 Sep - 04:03:12 10° S 04:05:07 11° SSE 04:06:53 10° SE visible
02 Sep - 06:08:57 10° SW 06:15:25 45° SSE 06:19:47 10° ENE daylight
02 Sep - 08:19:58 10° W 08:23:44 24° NNW 08:27:02 10° NNE daylight
02 Sep - 12:41:16 10° N 12:44:10 14° NNE 12:47:42 10° NE daylight
02 Sep - 14:47:08 10° NW 14:53:44 53° NNE 15:04:47 10° ESE daylight
02 Sep - 16:55:08 10° WNW 17:04:02 56° SSW 17:18:31 10° SE daylight
02 Sep - 19:07:44 10° WSW 19:16:48 21° SSW 19:28:05 10° SSE visible
03 Sep - 04:18:08 10° SSW 04:23:46 18° SSE 04:28:01 10° ESE visible
03 Sep - 06:26:48 10° SW 06:33:29 78° SSE 06:37:56 10° ENE daylight
03 Sep - 08:39:14 10° WNW 08:41:52 15° NNW 08:44:17 10° NNE daylight
03 Sep - 12:58:37 10° NNW 13:02:29 19° NNE 13:07:35 10° ENE daylight
03 Sep - 15:04:54 10° NW 15:11:45 72° NNE 15:23:34 10° ESE daylight
03 Sep - 17:13:38 10° W 17:22:27 41° SSW 17:36:04 10° SSE daylight
03 Sep - 19:28:53 10° WSW 19:35:49 15° SSW 19:43:51 10° S visible
